Starlink 31463

operational
NORAD ID: 59296 Int'l Des: 2024-056 Owner: SPXS Country: US Constellation: starlink
LEOCIRCULAR

关于 Starlink 31463

正在加载描述...

实时位置

正在加载3D地球...

即将过境

高度历史

Altitude vs Time

uPlot chart will show altitude changes over time

两行轨道根数

1 59296U 24056A 25259.00070115 .00002207 00000-0 89677-4 0 9997
2 59296 43.0023 133.3056 0001078 281.3464 78.7266 15.27593785 84482
Epoch: Sep 16, 2025 • Age: 20 hours

当前状态

高度 488.4 km
速度 7.62 km/s
星下点 -23.56°S, 43.54°E
发射日期 Mar 24, 2024
运行时间 1.4 years
类型 internet

技术详情

分类 Payload
质量 730.00 kg
干质量 700.00 kg
总质量 730.00 kg
长度 0.30 m
直径 4.10 m
跨度 29.00 m
形状 Box + pan
制造商 SPXS
平台类型 Starlink V2M
阶段状态 In Orbit
所有者/国家 SPXS/US

大型星座

Loading constellations...